WetterOnline ( https://www.wetteronline.de )

Wetter aktuell Rubihorn

Aktuelles Wetter: Oberstdorf (812m)

6-stündlich | Neueste Meldungen
Ortszeit Temperatur Wetter
Fr, 30.09. 8:00 7.0° C bewölkt
Fr, 30.09. 2:00 7.2° C Regen
Do, 29.09. 20:00 7.4° C Sprühregen
Do, 29.09. 14:00 8.2° C leichter Regen
Do, 29.09. 8:00 5.6° C leichter Regen
Do, 29.09. 2:00 4.7° C bedeckt
Mi, 28.09. 20:00 7.0° C Regen
Mi, 28.09. 14:00 9.7° C leichter Regen
Ortszeit Temperatur Wetter
Fr, 30.09. 12:00 8.7° C bedeckt
Fr, 30.09. 11:50 8.7° C bedeckt
Fr, 30.09. 11:40 8.6° C bedeckt
Fr, 30.09. 11:30 8.4° C bedeckt
Fr, 30.09. 11:20 8.4° C bedeckt
Fr, 30.09. 11:10 8.3° C bedeckt
Fr, 30.09. 11:00 8.5° C bedeckt
Fr, 30.09. 10:30 8.6° C bewölkt
Fr, 30.09. 10:00 8.5° C bedeckt
Fr, 30.09. 9:30 8.3° C bedeckt
Fr, 30.09. 9:00 7.8° C bedeckt
Ortszeit Relative Feuchte Sichtweite
Fr, 30.09. 8:00 95% 9 km
Fr, 30.09. 2:00 95% 11 km
Do, 29.09. 20:00 97% 45 km
Do, 29.09. 14:00 84% >70 km
Do, 29.09. 8:00 97% 40 km
Do, 29.09. 2:00 97% 65 km
Mi, 28.09. 20:00 90% 12 km
Mi, 28.09. 14:00 79% 30 km
Ortszeit Relative Feuchte Sichtweite
Fr, 30.09. 12:00 85% 50 km
Fr, 30.09. 11:50 85% -
Fr, 30.09. 11:40 85% -
Fr, 30.09. 11:30 85% 55 km
Fr, 30.09. 11:20 85% -
Fr, 30.09. 11:10 87% -
Fr, 30.09. 11:00 87% 40 km
Fr, 30.09. 10:30 87% 30 km
Fr, 30.09. 10:00 85% 28 km
Fr, 30.09. 9:30 84% 26 km
Fr, 30.09. 9:00 91% 18 km
Ortszeit Niederschlagsmenge Niederschlagsart
Fr, 30.09. 8:00 0.8 l/m2 in 12 Std. -
Fr, 30.09. 2:00 0.8 l/m2 in 6 Std. Regen
Do, 29.09. 20:00 8 l/m2 in 12 Std. Regen
Do, 29.09. 14:00 3 l/m2 in 6 Std. Regen
Do, 29.09. 8:00 8 l/m2 in 12 Std. Regen
Do, 29.09. 2:00 7 l/m2 in 6 Std. Regen
Mi, 28.09. 20:00 14 l/m2 in 12 Std. Regen
Mi, 28.09. 14:00 12 l/m2 in 6 Std. Regen
Ortszeit Niederschlagsmenge Niederschlagsart
Fr, 30.09. 12:00 0.0 l/m2 in 1 Std. -
Fr, 30.09. 11:50 keine Meldung -
Fr, 30.09. 11:40 keine Meldung -
Fr, 30.09. 11:30 0.0 l/m2 in 1 Std. -
Fr, 30.09. 11:20 keine Meldung -
Fr, 30.09. 11:10 keine Meldung -
Fr, 30.09. 11:00 0.0 l/m2 in 1 Std. -
Fr, 30.09. 10:30 0.0 l/m2 in 1 Std. -
Fr, 30.09. 10:00 0.0 l/m2 in 1 Std. -
Fr, 30.09. 9:30 0.0 l/m2 in 1 Std. -
Fr, 30.09. 9:00 0.0 l/m2 in 1 Std. -
Ortszeit Stärke Spitze Richtung
km/h Bft. km/h Grad Sektor
Fr, 30.09. 8:00 4 1 14 330° NW
Fr, 30.09. 2:00 4 1 7 30° NO
Do, 29.09. 20:00 4 1 11 240° SW
Do, 29.09. 14:00 4 1 7 350° N
Do, 29.09. 8:00 4 1 11 230° SW
Do, 29.09. 2:00 4 1 14 160° S
Mi, 28.09. 20:00 9 2 20 350° N
Mi, 28.09. 14:00 7 2 18 360° N
Ortszeit Stärke Spitze Richtung
km/h Bft. km/h Grad Sektor
Fr, 30.09. 12:00 4 1 11 30° NO
Fr, 30.09. 11:50 4 1 - 30° NO
Fr, 30.09. 11:40 4 1 - 20° N
Fr, 30.09. 11:30 7 2 11 30° NO
Fr, 30.09. 11:20 7 2 - 30° NO
Fr, 30.09. 11:10 7 2 - 20° N
Fr, 30.09. 11:00 7 2 11 20° N
Fr, 30.09. 10:30 7 2 11 10° N
Fr, 30.09. 10:00 4 1 7 350° N
Fr, 30.09. 9:30 0 0 4 - -
Fr, 30.09. 9:00 0 0 7 - -
Ortszeit Untergrenze Bedeckung Gattung
total tief tief mittel hoch
Fr, 30.09. 8:00 120 m 7/8 7/8 - - -
Fr, 30.09. 2:00 150 m 8/8 8/8 - - -
Do, 29.09. 20:00 150 m 8/8 8/8 - - -
Do, 29.09. 14:00 240 m 8/8 8/8 - - -
Do, 29.09. 8:00 30 m 4/8 4/8 - - -
Do, 29.09. 2:00 90 m 8/8 8/8 - - -
Mi, 28.09. 20:00 420 m 7/8 7/8 - - -
Mi, 28.09. 14:00 1050 m 7/8 7/8 - - -
Ortszeit Bedeckungsgrad in Achtel und Wolkenuntergrenze
Fr, 30.09. 12:00 8(1230m)
Fr, 30.09. 11:50 8(1230m)
Fr, 30.09. 11:40 8
Fr, 30.09. 11:30 1(240m) 8(1200m)
Fr, 30.09. 11:20 1(240m) 8(1200m)
Fr, 30.09. 11:10 8
Fr, 30.09. 11:00 2(240m) 8(1230m)
Fr, 30.09. 10:30 3(240m) 7(1260m) 8(3300m)
Fr, 30.09. 10:00 4(240m) 8(1290m)
Fr, 30.09. 9:30 1(150m) 8(1260m)
Fr, 30.09. 9:00 5(120m) 8(1290m)
Ortszeit Stationsdruck (hPa) Tendenz (hPa in 3 Std.)
Fr, 30.09. 8:00 916 + 1,2
Fr, 30.09. 2:00 915 + 0,9
Do, 29.09. 20:00 912 + 1,2
Do, 29.09. 14:00 911 + 0,8
Do, 29.09. 8:00 909 - 0,3
Do, 29.09. 2:00 910 - 1,0
Mi, 28.09. 20:00 909 + 0,9
Mi, 28.09. 14:00 909 0,0
Ortszeit Stationsdruck (hPa) Tendenz (hPa in 3 Std.)
Fr, 30.09. 12:00 918 + 1,4
Fr, 30.09. 11:50 918 keine Meldung
Fr, 30.09. 11:40 918 keine Meldung
Fr, 30.09. 11:30 918 + 1,5
Fr, 30.09. 11:20 918 keine Meldung
Fr, 30.09. 11:10 918 keine Meldung
Fr, 30.09. 11:00 918 + 1,1
Fr, 30.09. 10:30 917 + 1,3
Fr, 30.09. 10:00 917 + 1,4
Fr, 30.09. 9:30 917 + 1,3
Fr, 30.09. 9:00 917 + 1,5
Ortszeit Schneehöhe (cm)
Fr, 30.09. 8:00 0
Fr, 30.09. 2:00 0
Do, 29.09. 20:00 0
Do, 29.09. 14:00 0
Do, 29.09. 8:00 0
Do, 29.09. 2:00 0
Mi, 28.09. 20:00 0
Mi, 28.09. 14:00 0
Ortszeit Schneehöhe (cm)
Fr, 30.09. 12:00 0
Fr, 30.09. 11:50 0
Fr, 30.09. 11:40 0
Fr, 30.09. 11:30 0
Fr, 30.09. 11:20 0
Fr, 30.09. 11:10 0
Fr, 30.09. 11:00 0
Fr, 30.09. 10:30 0
Fr, 30.09. 10:00 0
Fr, 30.09. 9:30 0
Fr, 30.09. 9:00 0
Link zu dieser Seite / Seite empfehlen

Das Wetter in ...